STARLINK-32244 (60411 NORAD) Tracking and Keplerian Element Data

This shows tracking and keplerian element data for the satellite.

Feedback or suggestion? Click here.




ElementValue
Catalog60411
NameSTARLINK-32244
Epoch Orbit1106
Epoch Day286.8769705
Epoch Year2024
RAAN104.763
Inclination53.1613
Eccentricity0.0001393
Argument of Perigee113.772
Mean Anonmoly246.3427
Mean Motion15.30236717
Decay Rate1.196E-05
L11 60411U 24141P 24286.87697050 .00001196 00000+0 52444-4 0 9997
L22 60411 53.1613 104.7630 0001393 113.7720 246.3427 15.30236717 11062



Live tracking and technical data element details for STARLINK-32244 (NORAD 60411). STARLINK-32244 can be tracked NOW for your location showing map with azimuth and elevation plus other details from your city location.







IsCatalogInMostPopularTable: catalog: 60411, numindb: 7
Update: records affected: 1



GetName: 60411 STARLINK-32244

Hit Count: updated at: Tue, 03 Dec 2024 01:23:46 GMT